• In Uzbekistan
  • List of Countries
  • For 7 days
  • Water Temperature
  • Satellite Maps
  • Weather Map
  • Weather Widgets
  • user-avatar
    Login

    Hourly Weather Mayrhofen

    Today, 27 May, Saturday

    Time Temperature Precipitation Wind Pressure Humidity
    00:00 +4°C° 0 mm 1 mps 618 mmHg 96%
    01:00 +2°C° 0 mm 1 mps 617 mmHg 95%
    02:00 +2°C° 0 mm 1 mps 617 mmHg 93%
    03:00 +2°C° 0 mm 1 mps 617 mmHg 91%
    04:00 +2°C° 0 mm 1 mps 617 mmHg 89%
    05:00 +5°C° 0 mm 1 mps 618 mmHg 81%
    06:00 +8°C° 0 mm 1 mps 620 mmHg 72%
    07:00 +11°C° 0 mm 0 mps 622 mmHg 63%
    08:00 +13°C° 0 mm 1 mps 622 mmHg 55%
    09:00 +15°C° 0 mm 1 mps 623 mmHg 48%
    10:00 +18°C° 0 mm 1 mps 624 mmHg 40%
    11:00 +19°C° 0 mm 1 mps 624 mmHg 39%
    12:00 +20°C° 0 mm 1 mps 624 mmHg 37%
    13:00 +20°C° 0 mm 2 mps 625 mmHg 36%
    14:00 +19°C° 0 mm 2 mps 624 mmHg 39%
    15:00 +19°C° 0 mm 2 mps 624 mmHg 41%
    16:00 +19°C° 0 mm 2 mps 624 mmHg 44%
    17:00 +17°C° 0.1 mm 2 mps 623 mmHg 56%
    18:00 +15°C° 0.1 mm 1 mps 622 mmHg 69%
    19:00 +13°C° 0.1 mm 1 mps 622 mmHg 81%
    20:00 +11°C° 0.1 mm 1 mps 621 mmHg 86%
    21:00 +8°C° 0.1 mm 1 mps 620 mmHg 90%
    22:00 +6°C° 0.1 mm 1 mps 620 mmHg 95%
    23:00 +6°C° 0 mm 1 mps 620 mmHg 94%

    Tomorrow, 28 May, Sunday

    Time Temperature Precipitation Wind Pressure Humidity
    00:00 +6°C° 0 mm 1 mps 620 mmHg 93%
    01:00 +5°C° 0 mm 1 mps 620 mmHg 92%
    02:00 +5°C° 0 mm 1 mps 620 mmHg 92%
    03:00 +5°C° 0 mm 1 mps 620 mmHg 91%
    04:00 +5°C° 0 mm 1 mps 620 mmHg 91%
    05:00 +8°C° 0 mm 1 mps 621 mmHg 85%
    06:00 +10°C° 0 mm 1 mps 622 mmHg 79%
    07:00 +13°C° 0 mm 1 mps 623 mmHg 73%
    08:00 +15°C° 0 mm 1 mps 624 mmHg 62%
    09:00 +18°C° 0 mm 1 mps 625 mmHg 51%
    10:00 +18°C° 0 mm 0 mps 626 mmHg 40%
    11:00 +21°C° 0 mm 1 mps 626 mmHg 38%
    12:00 +22°C° 0 mm 1 mps 626 mmHg 37%
    13:00 +22°C° 0 mm 1 mps 626 mmHg 35%
    14:00 +22°C° 0.1 mm 1 mps 625 mmHg 39%
    15:00 +21°C° 0.1 mm 1 mps 625 mmHg 42%
    16:00 +21°C° 0.1 mm 1 mps 625 mmHg 45%
    17:00 +19°C° 0.1 mm 1 mps 624 mmHg 57%
    18:00 +16°C° 0.1 mm 1 mps 623 mmHg 70%
    19:00 +14°C° 0.1 mm 1 mps 622 mmHg 82%
    20:00 +12°C° 0 mm 1 mps 621 mmHg 86%
    21:00 +8°C° 0 mm 0 mps 621 mmHg 90%
    22:00 +6°C° 0 mm 0 mps 620 mmHg 94%
    23:00 +7°C° 0 mm 1 mps 620 mmHg 94%

    Day after tomorrow, 29 May, Monday

    Time Temperature Precipitation Wind Pressure Humidity
    00:00 +7°C° 0 mm 1 mps 620 mmHg 93%
    01:00 +8°C° 0 mm 1 mps 620 mmHg 92%
    02:00 +8°C° 0 mm 1 mps 620 mmHg 93%
    03:00 +7°C° 0 mm 1 mps 619 mmHg 93%
    04:00 +7°C° 0 mm 1 mps 619 mmHg 93%
    05:00 +9°C° 0 mm 1 mps 620 mmHg 87%
    06:00 +12°C° 0 mm 1 mps 621 mmHg 82%
    07:00 +14°C° 0 mm 1 mps 622 mmHg 76%
    08:00 +16°C° 0 mm 1 mps 622 mmHg 66%
    09:00 +17°C° 0 mm 0 mps 623 mmHg 56%
    10:00 +19°C° 0 mm 0 mps 624 mmHg 45%
    11:00 +22°C° 0 mm 1 mps 624 mmHg 44%
    12:00 +23°C° 0 mm 1 mps 624 mmHg 43%
    13:00 +23°C° 0 mm 1 mps 624 mmHg 42%
    14:00 +22°C° 0.3 mm 1 mps 623 mmHg 46%
    15:00 +21°C° 0.3 mm 1 mps 622 mmHg 51%
    16:00 +21°C° 0.3 mm 1 mps 622 mmHg 56%
    17:00 +19°C° 0.5 mm 1 mps 621 mmHg 66%
    18:00 +18°C° 0.5 mm 1 mps 621 mmHg 76%
    19:00 +15°C° 0.5 mm 1 mps 620 mmHg 87%
    20:00 +13°C° 0.3 mm 1 mps 620 mmHg 90%
    21:00 +11°C° 0.3 mm 1 mps 619 mmHg 92%
    22:00 +8°C° 0.3 mm 1 mps 618 mmHg 95%
    23:00 +9°C° 0.4 mm 1 mps 618 mmHg 96%

    30 May, Tuesday

    Time Temperature Precipitation Wind Pressure Humidity
    00:00 +9°C° 0.4 mm 1 mps 618 mmHg 96%
    01:00 +9°C° 0.4 mm 1 mps 618 mmHg 96%
    02:00 +8°C° 0.2 mm 1 mps 618 mmHg 96%
    03:00 +8°C° 0.2 mm 1 mps 618 mmHg 96%
    04:00 +8°C° 0.2 mm 1 mps 618 mmHg 96%
    05:00 +10°C° 0.1 mm 1 mps 619 mmHg 93%
    06:00 +12°C° 0.1 mm 1 mps 619 mmHg 89%
    07:00 +14°C° 0.1 mm 1 mps 620 mmHg 86%
    08:00 +15°C° 0.1 mm 1 mps 621 mmHg 79%
    09:00 +18°C° 0.1 mm 1 mps 622 mmHg 72%
    10:00 +19°C° 0.1 mm 1 mps 622 mmHg 65%
    11:00 +19°C° 0.8 mm 1 mps 622 mmHg 67%
    12:00 +19°C° 0.8 mm 1 mps 622 mmHg 69%
    13:00 +19°C° 0.8 mm 1 mps 622 mmHg 71%
    14:00 +19°C° 1.5 mm 1 mps 622 mmHg 74%
    15:00 +19°C° 1.5 mm 1 mps 621 mmHg 77%
    16:00 +18°C° 1.5 mm 1 mps 621 mmHg 80%
    17:00 +16°C° 2.1 mm 1 mps 621 mmHg 85%
    18:00 +15°C° 2.1 mm 1 mps 621 mmHg 89%
    19:00 +14°C° 2.1 mm 1 mps 620 mmHg 94%
    20:00 +13°C° 1.9 mm 1 mps 620 mmHg 95%
    21:00 +12°C° 1.9 mm 1 mps 620 mmHg 96%
    22:00 +11°C° 1.9 mm 1 mps 620 mmHg 98%
    23:00 +11°C° 0.6 mm 1 mps 620 mmHg 97%

    31 May, Wednesday

    Time Temperature Precipitation Wind Pressure Humidity
    00:00 +11°C° 0.6 mm 1 mps 620 mmHg 97%
    01:00 +10°C° 0.6 mm 1 mps 620 mmHg 97%
    02:00 +10°C° 0.1 mm 1 mps 620 mmHg 97%
    03:00 +9°C° 0.1 mm 1 mps 619 mmHg 96%
    04:00 +9°C° 0.1 mm 1 mps 619 mmHg 96%
    05:00 +10°C° 0 mm 1 mps 620 mmHg 93%
    06:00 +11°C° 0 mm 1 mps 620 mmHg 91%
    07:00 +13°C° 0 mm 1 mps 621 mmHg 89%
    08:00 +14°C° 0 mm 1 mps 622 mmHg 80%
    09:00 +16°C° 0 mm 1 mps 622 mmHg 71%
    10:00 +19°C° 0 mm 1 mps 623 mmHg 62%
    11:00 +19°C° 0.4 mm 1 mps 623 mmHg 64%
    12:00 +19°C° 0.4 mm 1 mps 623 mmHg 66%
    13:00 +19°C° 0.4 mm 1 mps 622 mmHg 68%
    14:00 +18°C° 1 mm 1 mps 622 mmHg 72%
    15:00 +18°C° 1 mm 1 mps 622 mmHg 76%
    16:00 +16°C° 1 mm 1 mps 621 mmHg 80%
    17:00 +15°C° 1.4 mm 1 mps 621 mmHg 85%
    18:00 +14°C° 1.4 mm 1 mps 621 mmHg 89%
    19:00 +13°C° 1.4 mm 1 mps 621 mmHg 94%
    20:00 +12°C° 1.3 mm 1 mps 620 mmHg 95%
    21:00 +11°C° 1.3 mm 1 mps 620 mmHg 96%
    22:00 +10°C° 1.3 mm 1 mps 620 mmHg 98%
    23:00 +10°C° 0.2 mm 1 mps 620 mmHg 98%

    1 June, Thursday

    Time Temperature Precipitation Wind Pressure Humidity
    00:00 +8°C° 0.2 mm 0 mps 619 mmHg 98%
    01:00 +8°C° 0.2 mm 0 mps 619 mmHg 98%
    02:00 +7°C° 0 mm 0 mps 619 mmHg 98%
    03:00 +7°C° 0 mm 0 mps 619 mmHg 98%
    04:00 +7°C° 0 mm 0 mps 619 mmHg 98%
    05:00 +8°C° 0 mm 0 mps 619 mmHg 96%
    06:00 +10°C° 0 mm 0 mps 620 mmHg 94%
    07:00 +12°C° 0 mm 1 mps 621 mmHg 92%
    08:00 +13°C° 0.1 mm 1 mps 621 mmHg 88%
    09:00 +14°C° 0.1 mm 1 mps 621 mmHg 84%
    10:00 +14°C° 0.1 mm 1 mps 622 mmHg 80%
    11:00 +15°C° 0.3 mm 1 mps 622 mmHg 78%
    12:00 +15°C° 0.3 mm 1 mps 622 mmHg 77%
    13:00 +16°C° 0.3 mm 1 mps 622 mmHg 75%
    14:00 +16°C° 0.8 mm 1 mps 621 mmHg 77%
    15:00 +15°C° 0.8 mm 1 mps 621 mmHg 80%
    16:00 +15°C° 0.8 mm 2 mps 621 mmHg 82%
    17:00 +14°C° 0.9 mm 1 mps 621 mmHg 85%
    18:00 +13°C° 0.9 mm 1 mps 620 mmHg 89%
    19:00 +13°C° 0.9 mm 1 mps 620 mmHg 93%
    20:00 +12°C° 0.6 mm 1 mps 620 mmHg 95%
    21:00 +11°C° 0.6 mm 1 mps 620 mmHg 96%
    22:00 +9°C° 0.6 mm 0 mps 620 mmHg 98%
    23:00 +8°C° 0.2 mm 0 mps 619 mmHg 98%
    Show more